Weather Roundup
Issued by NWS Corpus Christi, TX

Home | Current Version | Previous Version | Text Only | Print | Product List | Glossary On
Versions: 1 2 3 4 5 6 7 8 9 10 11 12 13 14 15 16 17 18 19 20 21 22 23 24 25 26 27 28 29 30 31 32 33 34 35 36 37 38 39 40 41 42 43 44 45 46 47 48 49 50
000
ASUS44 KCRP 020910
HRRCRP

SOUTH TEXAS REGIONAL WEATHER ROUNDUP
NATIONAL WEATHER SERVICE CORPUS CHRISTI TX
400 AM CDT WED SEP 02 2015


TXZ229>244-021000-
...CORPUS CHRISTI AREA OBSERVATIONS...

CITY           SKY/WX    TMP DP  RH WIND       PRES   REMARKS
CORPUS CHRISTI PTCLDY    75  72  90 CALM      29.98F
NAS CORPUS CHR PTCLDY    78  74  87 CALM      29.97F
ROCKPORT       PTCLDY    81  73  76 SE8       29.98F
KINGSVILLE NAS CLEAR     73  73 100 CALM      29.98F
ALICE          MOCLDY    73  73 100 NE3       29.98F
FALFURRIAS     PTCLDY    75  73  93 CALM      29.97F
$$

...VICTORIA AREA OBSERVATIONS...

CITY           SKY/WX    TMP DP  RH WIND       PRES   REMARKS
VICTORIA       PTCLDY    73  73 100 NE5       30.01F
BEEVILLE       MOCLDY    71  71 100 NE5       30.00F
PLEASANTON     MOCLDY    73  69  87 E3        30.03F
SAN ANTONIO    CLOUDY    75  69  81 SE7       30.05F
$$

...LAREDO AREA OBSERVATIONS...

CITY           SKY/WX    TMP DP  RH WIND       PRES   REMARKS
LAREDO         PTCLDY    77  74  90 SE6       30.00F
COTULLA        CLOUDY    77  71  82 E6        30.01F
DEL RIO        CLOUDY    77  69  76 E9        30.01S
MCALLEN        CLEAR     80  75  84 E6        29.96F
HEBBRONVILLE   NOT AVBL
$$

...OTHER TEXAS OBSERVATIONS...

CITY           SKY/WX    TMP DP  RH WIND       PRES   REMARKS
BROWNSVILLE    CLEAR     77  75  93 NE3       29.95F
HOUSTON        MOCLDY    75  72  90 N6        30.02S
COL. STATION   CLEAR     72  69  90 CALM      30.04F
AUSTIN         MOCLDY    66  65  96 CALM      30.04F
WACO           CLEAR     74  68  81 S14       30.04F
FORT WORTH     CLEAR     77  67  71 S15       30.03S
WICHITA FALLS  CLEAR     74  66  76 S12       30.01S
LUBBOCK        PTCLDY    69  55  60 SE3       30.08F
EL PASO        CLOUDY    79  47  32 NE3       30.06F
$$

...MARINE OBSERVATIONS...

STATION/POSITION TIME  SKY/WX   TEMP    WIND        PRES    VSBY  WAVE   SWELL
                                AIR SEA DIR/SP/G                  HT/PER HT/PER
                 (UTC)          (F)     (DEG/KT/KT) (MB)    (MI)  (FT/S) (FT/S)
PORT ARANSAS     0900            81 84  170/ 10/ 12 1015.6F
BUOY 90 E PORT A 0850            83 84  150/ 14/ 16 1014.9F         3/ 4   2/ 9
BUOY 45 SE BAFFI 0850            83 84  160/ 12/ 14 1014.2F         3/ 5
BUOY 200 E PT IS 0850            84 85  130/ 12/ 14 1014.9F         3/ 6   2/11
BUOY 15 E GALVES 0850            82 85  110/ 14/ 16 1016.1F         3/ 5
$$


USA.gov is the U.S. government's official web portal to all federal, state and local government web resources and services.